MAS1326 WMKK-WMKN

Flight info

Callsign MAS1326
Flight time 0h 42m
Altitude 29000
Route PIBOS1A PIBOS R208 GUNBO GUNBO1E
Aircraft B738/M-SDE2E3FGHIRWXY/LB1

Departure

Time 2026-05-05 07:43
Airport Kuala Lumpur International Airport (WMKK)

Arrival

Time 2026-05-05 08:25
Airport Sultan Mahmud Airport (WMKN)
Time Latitude Longitude Altitude Speed Heading
2026-05-05 07:17 2.75461 101.70726 72 ft 0 kts 146°
2026-05-05 07:29 2.75462 101.70726 72 ft 1 kts 146°
2026-05-05 07:29 2.75480 101.70711 62 ft 4 kts 123°
2026-05-05 07:29 2.75487 101.70688 62 ft 4 kts 73°
2026-05-05 07:29 2.75482 101.70677 62 ft 0 kts 56°
2026-05-05 07:33 2.75483 101.70679 62 ft 1 kts 56°
2026-05-05 07:33 2.75491 101.70691 65 ft 3 kts 56°
2026-05-05 07:34 2.75509 101.70717 64 ft 6 kts 56°
2026-05-05 07:34 2.75535 101.70756 72 ft 8 kts 56°
2026-05-05 07:34 2.75579 101.70796 67 ft 10 kts 20°
2026-05-05 07:34 2.75636 101.70840 68 ft 11 kts 54°
2026-05-05 07:35 2.75667 101.70884 72 ft 12 kts 55°
2026-05-05 07:35 2.75736 101.70988 72 ft 14 kts 56°
2026-05-05 07:35 2.75775 101.71047 70 ft 15 kts 56°
2026-05-05 07:35 2.75838 101.71138 66 ft 17 kts 41°
2026-05-05 07:36 2.75990 101.71088 68 ft 20 kts 327°
2026-05-05 07:36 2.76074 101.71051 64 ft 20 kts 345°
2026-05-05 07:36 2.76220 101.71026 64 ft 23 kts 346°
2026-05-05 07:36 2.76364 101.70952 64 ft 23 kts 328°
2026-05-05 07:37 2.76498 101.70863 60 ft 24 kts 326°
2026-05-05 07:37 2.76636 101.70769 64 ft 23 kts 326°
2026-05-05 07:37 2.76768 101.70682 62 ft 22 kts 326°
2026-05-05 07:37 2.76896 101.70596 65 ft 22 kts 326°
2026-05-05 07:38 2.77020 101.70513 63 ft 21 kts 326°
2026-05-05 07:38 2.77141 101.70431 61 ft 21 kts 326°
2026-05-05 07:38 2.77260 101.70351 58 ft 20 kts 326°
2026-05-05 07:38 2.77375 101.70274 55 ft 20 kts 326°
2026-05-05 07:39 2.77487 101.70199 57 ft 19 kts 326°
2026-05-05 07:39 2.77595 101.70127 57 ft 18 kts 326°
2026-05-05 07:39 2.77701 101.70063 62 ft 17 kts 346°
2026-05-05 07:39 2.77774 101.70098 59 ft 0 kts 55°
2026-05-05 07:41 2.77777 101.70101 59 ft 2 kts 55°
2026-05-05 07:41 2.77793 101.70124 58 ft 6 kts 55°
2026-05-05 07:41 2.77815 101.70178 61 ft 10 kts 84°
2026-05-05 07:42 2.77774 101.70241 63 ft 13 kts 150°
2026-05-05 07:42 2.77687 101.70296 60 ft 17 kts 147°
2026-05-05 07:42 2.77456 101.70450 58 ft 79 kts 146°
2026-05-05 07:42 2.76781 101.70906 68 ft 152 kts 146°
2026-05-05 07:43 2.75857 101.71532 788 ft 152 kts 147°
2026-05-05 07:43 2.75028 101.72150 1738 ft 151 kts 143°
2026-05-05 07:43 2.74100 101.72788 2337 ft 178 kts 150°
2026-05-05 07:43 2.72929 101.73508 2675 ft 215 kts 147°
2026-05-05 07:44 2.71653 101.74464 2963 ft 241 kts 130°
2026-05-05 07:44 2.71036 101.76006 3584 ft 246 kts 89°
2026-05-05 07:44 2.71171 101.77758 4176 ft 260 kts 89°
2026-05-05 07:44 2.70593 101.79479 5020 ft 270 kts 129°
2026-05-05 07:45 2.69264 101.80825 6042 ft 275 kts 129°
2026-05-05 07:45 2.68196 101.82402 6885 ft 280 kts 118°
2026-05-05 07:45 2.67244 101.84117 7790 ft 283 kts 117°
2026-05-05 07:45 2.66307 101.85839 8677 ft 288 kts 117°
2026-05-05 07:46 2.65356 101.87646 9609 ft 292 kts 117°
2026-05-05 07:46 2.64423 101.89450 10299 ft 303 kts 117°
2026-05-05 07:46 2.63426 101.91389 10737 ft 321 kts 117°
2026-05-05 07:46 2.62398 101.93391 11504 ft 326 kts 117°
2026-05-05 07:47 2.61381 101.95415 12406 ft 327 kts 113°
2026-05-05 07:47 2.60911 101.97664 13163 ft 332 kts 86°
2026-05-05 07:47 2.61414 101.99890 13929 ft 336 kts 70°
2026-05-05 07:47 2.62390 102.02016 14695 ft 337 kts 64°
2026-05-05 07:48 2.63457 102.04115 15395 ft 341 kts 64°
2026-05-05 07:48 2.64536 102.06257 16033 ft 347 kts 64°
2026-05-05 07:48 2.65608 102.08435 16740 ft 350 kts 65°
2026-05-05 07:48 2.66672 102.10629 17462 ft 352 kts 65°
2026-05-05 07:49 2.67776 102.12836 18142 ft 356 kts 60°
2026-05-05 07:49 2.69309 102.14791 18764 ft 359 kts 47°
2026-05-05 07:49 2.71034 102.16587 19533 ft 356 kts 47°
2026-05-05 07:49 2.72717 102.18392 20290 ft 354 kts 49°
2026-05-05 07:50 2.74375 102.20213 21013 ft 354 kts 49°
2026-05-05 07:50 2.76017 102.22040 21727 ft 353 kts 49°
2026-05-05 07:50 2.77658 102.23873 22432 ft 354 kts 49°
2026-05-05 07:50 2.79303 102.25710 22756 ft 353 kts 49°
2026-05-05 07:51 2.81144 102.27334 22773 ft 357 kts 29°
2026-05-05 07:51 2.83499 102.28092 22803 ft 360 kts
2026-05-05 07:51 2.86001 102.28002 22812 ft 363 kts 350°
2026-05-05 07:51 2.88384 102.27155 22823 ft 365 kts 336°
2026-05-05 07:52 2.90690 102.26073 22793 ft 367 kts 336°
2026-05-05 07:52 2.92990 102.24980 22800 ft 367 kts 336°
2026-05-05 07:52 2.95302 102.23883 22785 ft 368 kts 336°
2026-05-05 07:52 2.97612 102.22795 22791 ft 367 kts 336°
2026-05-05 07:53 2.99930 102.21712 22786 ft 367 kts 336°
2026-05-05 07:53 3.02227 102.20645 22787 ft 367 kts 336°
2026-05-05 07:53 3.04543 102.19571 22791 ft 366 kts 336°
2026-05-05 07:53 3.06857 102.18502 22809 ft 366 kts 336°
2026-05-05 07:54 3.09165 102.17435 22794 ft 366 kts 336°
2026-05-05 07:54 3.11482 102.16365 22805 ft 365 kts 336°
2026-05-05 07:54 3.13788 102.15299 22811 ft 365 kts 336°
2026-05-05 07:54 3.16090 102.14235 22817 ft 365 kts 336°
2026-05-05 07:55 3.18391 102.13172 22815 ft 364 kts 336°
2026-05-05 07:55 3.20696 102.12106 22813 ft 364 kts 336°
2026-05-05 07:55 3.22991 102.11045 22813 ft 364 kts 336°
2026-05-05 07:55 3.25295 102.09980 22808 ft 364 kts 336°
2026-05-05 07:56 3.27590 102.08919 22813 ft 364 kts 336°
2026-05-05 07:56 3.29893 102.07855 22820 ft 364 kts 336°
2026-05-05 07:56 3.32185 102.06801 22821 ft 364 kts 338°
2026-05-05 07:56 3.34614 102.06186 22800 ft 359 kts
2026-05-05 07:57 3.37055 102.06582 22809 ft 356 kts 18°
2026-05-05 07:57 3.39260 102.07685 22125 ft 364 kts 46°
2026-05-05 07:57 3.40870 102.09743 21282 ft 378 kts 58°
2026-05-05 07:57 3.42170 102.11940 21564 ft 354 kts 65°
2026-05-05 07:58 3.42929 102.14242 21273 ft 356 kts 79°
2026-05-05 07:58 3.43663 102.16533 22153 ft 338 kts 60°
2026-05-05 07:58 3.45184 102.18311 22903 ft 332 kts 41°
2026-05-05 07:58 3.47061 102.19641 23056 ft 349 kts 24°
2026-05-05 07:59 3.49458 102.20095 22998 ft 353 kts
2026-05-05 07:59 3.51929 102.20145 22905 ft 359 kts
2026-05-05 07:59 3.54439 102.20185 22859 ft 361 kts
2026-05-05 07:59 3.56951 102.20253 22812 ft 360 kts
2026-05-05 08:00 3.59440 102.20455 22808 ft 357 kts
2026-05-05 08:00 3.61866 102.20913 22811 ft 354 kts 15°
2026-05-05 08:00 3.64222 102.21603 22818 ft 352 kts 20°
2026-05-05 08:00 3.66513 102.22461 22816 ft 352 kts 24°
2026-05-05 08:01 3.68761 102.23431 22817 ft 351 kts 26°
2026-05-05 08:01 3.70981 102.24468 22813 ft 352 kts 27°
2026-05-05 08:01 3.73177 102.25541 22819 ft 352 kts 28°
2026-05-05 08:01 3.75348 102.26628 22815 ft 353 kts 28°
2026-05-05 08:02 3.77566 102.27753 22818 ft 354 kts 28°
2026-05-05 08:02 3.79740 102.28862 22817 ft 355 kts 28°
2026-05-05 08:02 3.81975 102.30006 22815 ft 356 kts 28°
2026-05-05 08:02 3.84181 102.31136 22813 ft 357 kts 28°
2026-05-05 08:03 3.86367 102.32257 22813 ft 357 kts 28°
2026-05-05 08:03 3.88579 102.33391 22811 ft 358 kts 28°
2026-05-05 08:03 3.90793 102.34526 22808 ft 358 kts 28°
2026-05-05 08:03 3.93007 102.35661 22810 ft 358 kts 28°
2026-05-05 08:04 3.95227 102.36800 22808 ft 357 kts 28°
2026-05-05 08:04 3.97436 102.37932 22808 ft 357 kts 28°
2026-05-05 08:04 3.99643 102.39064 22811 ft 356 kts 28°
2026-05-05 08:04 4.01836 102.40189 22807 ft 356 kts 28°
2026-05-05 08:05 4.04038 102.41318 22811 ft 355 kts 28°
2026-05-05 08:05 4.06233 102.42444 22810 ft 354 kts 28°
2026-05-05 08:05 4.08399 102.43554 22748 ft 345 kts 28°
2026-05-05 08:05 4.10570 102.44668 22008 ft 353 kts 28°
2026-05-05 08:06 4.12756 102.45790 21518 ft 354 kts 28°
2026-05-05 08:06 4.14932 102.46906 21177 ft 351 kts 28°
2026-05-05 08:06 4.17103 102.48020 20799 ft 349 kts 28°
2026-05-05 08:06 4.19254 102.49124 20434 ft 347 kts 28°
2026-05-05 08:07 4.21400 102.50225 20080 ft 345 kts 28°
2026-05-05 08:07 4.23528 102.51317 19716 ft 343 kts 28°
2026-05-05 08:07 4.25650 102.52406 19339 ft 342 kts 28°
2026-05-05 08:07 4.27770 102.53494 18988 ft 340 kts 28°
2026-05-05 08:08 4.29869 102.54571 18620 ft 339 kts 28°
2026-05-05 08:08 4.31958 102.55644 18275 ft 338 kts 28°
2026-05-05 08:08 4.34053 102.56719 17875 ft 337 kts 28°
2026-05-05 08:08 4.36127 102.57784 17504 ft 334 kts 28°
2026-05-05 08:09 4.38186 102.58841 17145 ft 331 kts 28°
2026-05-05 08:09 4.40227 102.59889 16787 ft 329 kts 28°
2026-05-05 08:09 4.42261 102.60933 16433 ft 327 kts 28°
2026-05-05 08:09 4.44280 102.61970 16084 ft 325 kts 28°
2026-05-05 08:10 4.46289 102.63002 15740 ft 323 kts 28°
2026-05-05 08:10 4.48285 102.64028 15400 ft 322 kts 28°
2026-05-05 08:10 4.50271 102.65048 15060 ft 320 kts 28°
2026-05-05 08:10 4.52257 102.66069 14705 ft 320 kts 28°
2026-05-05 08:11 4.54227 102.67081 14363 ft 319 kts 28°
2026-05-05 08:11 4.56202 102.68096 14029 ft 318 kts 28°
2026-05-05 08:11 4.58168 102.69106 13665 ft 318 kts 28°
2026-05-05 08:11 4.60141 102.70119 13265 ft 318 kts 28°
2026-05-05 08:12 4.62109 102.71104 12926 ft 316 kts 27°
2026-05-05 08:12 4.64082 102.72073 12575 ft 315 kts 27°
2026-05-05 08:12 4.66038 102.73030 12226 ft 312 kts 27°
2026-05-05 08:12 4.67972 102.73978 12036 ft 305 kts 27°
2026-05-05 08:13 4.69867 102.74910 11735 ft 302 kts 27°
2026-05-05 08:13 4.71747 102.75834 11430 ft 300 kts 27°
2026-05-05 08:13 4.73610 102.76750 11125 ft 298 kts 27°
2026-05-05 08:13 4.75471 102.77665 10807 ft 297 kts 27°
2026-05-05 08:14 4.77324 102.78579 10470 ft 296 kts 27°
2026-05-05 08:14 4.79170 102.79489 10173 ft 294 kts 28°
2026-05-05 08:14 4.80978 102.80380 10011 ft 287 kts 27°
2026-05-05 08:14 4.82775 102.81265 9702 ft 287 kts 27°
2026-05-05 08:15 4.84554 102.82141 9385 ft 285 kts 28°
2026-05-05 08:15 4.86339 102.83018 9063 ft 285 kts 27°
2026-05-05 08:15 4.88187 102.83727 8734 ft 285 kts 16°
2026-05-05 08:15 4.90106 102.84169 8433 ft 283 kts 15°
2026-05-05 08:16 4.92023 102.84614 8118 ft 282 kts 14°
2026-05-05 08:16 4.93921 102.85071 7815 ft 280 kts 15°
2026-05-05 08:16 4.95807 102.85537 7507 ft 279 kts 14°
2026-05-05 08:16 4.97660 102.86001 7210 ft 278 kts 15°
2026-05-05 08:17 4.99537 102.86475 6904 ft 277 kts 15°
2026-05-05 08:17 5.01393 102.86947 6600 ft 276 kts 14°
2026-05-05 08:17 5.03279 102.87427 6292 ft 276 kts 15°
2026-05-05 08:17 5.05132 102.87899 5974 ft 274 kts 14°
2026-05-05 08:18 5.06954 102.88364 5671 ft 273 kts 14°
2026-05-05 08:18 5.08798 102.88808 5401 ft 271 kts 12°
2026-05-05 08:18 5.10643 102.89159 5165 ft 268 kts 11°
2026-05-05 08:18 5.12465 102.89497 4937 ft 266 kts 12°
2026-05-05 08:19 5.14279 102.89840 4705 ft 264 kts 11°
2026-05-05 08:19 5.16078 102.90184 4467 ft 262 kts 11°
2026-05-05 08:19 5.17283 102.90420 4311 ft 261 kts 14°
2026-05-05 08:19 5.18898 102.91179 4043 ft 257 kts 44°
2026-05-05 08:20 5.20078 102.92485 3872 ft 251 kts 47°
2026-05-05 08:20 5.21302 102.93713 3645 ft 248 kts 45°
2026-05-05 08:20 5.22533 102.94915 3422 ft 245 kts 45°
2026-05-05 08:20 5.23745 102.96103 3220 ft 242 kts 45°
2026-05-05 08:21 5.24925 102.97233 3038 ft 225 kts 44°
2026-05-05 08:21 5.26023 102.98237 2885 ft 205 kts 44°
2026-05-05 08:21 5.27019 102.99203 2643 ft 193 kts 46°
2026-05-05 08:21 5.27900 103.00071 2421 ft 181 kts 46°
2026-05-05 08:22 5.28759 103.00921 2203 ft 173 kts 46°
2026-05-05 08:22 5.29599 103.01754 1964 ft 166 kts 45°
2026-05-05 08:22 5.30405 103.02548 1778 ft 157 kts 45°
2026-05-05 08:22 5.31166 103.03303 1579 ft 150 kts 47°
2026-05-05 08:23 5.31898 103.04028 1379 ft 145 kts 46°
2026-05-05 08:23 5.32608 103.04729 1226 ft 142 kts 45°
2026-05-05 08:23 5.33304 103.05416 1030 ft 143 kts 46°
2026-05-05 08:23 5.34016 103.06122 822 ft 147 kts 43°
2026-05-05 08:24 5.34767 103.06833 663 ft 154 kts 47°
2026-05-05 08:24 5.35501 103.07597 473 ft 151 kts 42°
2026-05-05 08:24 5.36249 103.08335 336 ft 150 kts 43°
2026-05-05 08:24 5.36991 103.09084 109 ft 151 kts 45°
2026-05-05 08:25 5.37730 103.09799 28 ft 144 kts 44°
2026-05-05 08:25 5.38308 103.10369 28 ft 86 kts 45°
2026-05-05 08:25 5.38586 103.10644 28 ft 26 kts 44°
2026-05-05 08:25 5.38623 103.10681 28 ft 11 kts 44°
2026-05-05 08:26 5.38742 103.10798 28 ft 36 kts 44°
2026-05-05 08:26 5.38968 103.11021 28 ft 47 kts 44°
2026-05-05 08:26 5.39160 103.11168 28 ft 25 kts 23°
2026-05-05 08:26 5.39191 103.11242 28 ft 15 kts 177°
2026-05-05 08:27 5.39119 103.11174 28 ft 14 kts 227°
2026-05-05 08:27 5.39051 103.11102 28 ft 15 kts 227°
2026-05-05 08:27 5.38971 103.11024 28 ft 17 kts 223°
2026-05-05 08:27 5.38878 103.10935 28 ft 20 kts 224°
2026-05-05 08:28 5.38764 103.10825 28 ft 25 kts 225°
2026-05-05 08:28 5.38627 103.10688 28 ft 29 kts 224°
2026-05-05 08:28 5.38486 103.10548 28 ft 28 kts 224°
2026-05-05 08:28 5.38353 103.10417 28 ft 26 kts 224°
2026-05-05 08:29 5.38228 103.10323 28 ft 13 kts 182°
2026-05-05 08:29 5.38165 103.10361 26 ft 11 kts 136°
2026-05-05 08:29 5.38097 103.10401 25 ft 12 kts 180°
2026-05-05 08:30 5.38010 103.10340 24 ft 7 kts 219°
2026-05-05 08:30 5.37966 103.10340 27 ft 7 kts 152°
2026-05-05 08:30 5.37932 103.10368 25 ft 3 kts 136°
2026-05-05 08:30 5.37919 103.10381 25 ft 3 kts 136°
2026-05-05 08:31 5.37907 103.10394 26 ft 0 kts 135°